Temperature
18 18 18 18 18 18 18 18 18 18 18 18 18 18 18 18 18 18 18 18 18 18 18 18 17 17 17 17 17 17 17 17 17 17 17 17 16 16 16 16 16 16 16
18 18 18 18 18 18 18 18 18 18 18 18 18 18 18 18 18 18 18 18 18 17 17 17 17 17 17 17 17 17 17 17 17 17 17 17 17 16 16 16 16 16 16
18 18 18 18 18 18 18 18 18 18 18 18 18 18 18 18 18 17 17 17 18 17 17 17 17 17 17 17 17 17 17 17 17 17 17 16 16 16 16 16 16 16 16
18 18 18 18 18 18 18 18 18 18 18 18 18 18 18 18 18 17 17 17 17 17 17 17 17 17 17 17 17 17 17 17 17 17 17 17 16 16 16 16 16 16 16
18 18 18 18 18 18 18 18 18 18 18 18 18 18 18 18 18 17 17 17 17 17 17 17 17 17 17 17 17 17 17 17 17 17 17 17 16 16 16 16 16 16 16
18 18 18 18 18 18 18 18 18 18 18 18 18 18 18 18 18 17 18 17 17 17 17 17 17 17 17 17 17 17 17 17 17 17 16 16 16 16 16 16 16 16 16
18 18 18 18 18 18 18 18 18 18 18 18 18 18 18 18 18 18 18 17 17 17 17 17 17 17 17 17 17 17 17 17 17 17 16 16 16 16 16 16 16 16 16
18 18 18 18 18 18 18 18 18 18 17 18 17 17 17 18 18 18 18 18 17 17 17 17 17 17 17 17 17 17 17 17 17 17 16 16 16 16 16 16 16 16 16
18 18 18 18 18 18 18 18 18 18 18 17 17 17 17 17 17 18 18 18 18 18 17 17 17 17 17 17 17 17 17 17 17 16 16 16 16 16 16 16 16 16 16
18 18 18 18 18 18 18 18 18 18 18 18 18 18 18 17 17 17 17 17 17 17 17 17 17 17 17 17 17 17 17 17 17 17 16 16 16 16 16 16 16 16 16
18 18 18 18 18 18 18 18 18 18 18 18 18 18 18 17 17 17 17 17 17 17 17 17 17 17 17 17 17 17 17 17 17 17 17 16 16 16 16 16 16 16 16
18 18 18 18 18 18 18 18 18 17 17 17 18 18 17 17 17 17 17 17 17 17 17 17 17 17 17 17 17 17 17 17 17 17 16 16 16 16 16 16 16 15 15
18 18 18 18 18 18 18 18 18 18 18 17 17 17 17 17 17 17 17 17 17 17 17 17 17 17 17 17 17 17 17 17 16 16 16 16 16 16 16 16 16 15 15
18 18 18 18 18 18 18 18 18 17 17 17 17 17 17 17 17 17 17 17 16 16 17 17 17 17 17 17 17 17 16 16 16 16 16 16 16 16 16 16 15 15 15
18 18 18 18 18 17 17 17 17 17 17 17 17 17 17 17 17 17 17 17 16 16 16 17 17 17 16 17 17 17 16 16 16 16 16 16 16 16 16 15 15 15 15
18 18 18 17 17 17 17 17 17 17 17 17 17 17 17 17 17 17 17 16 16 16 16 16 16 16 16 16 16 16 16 16 16 16 16 16 16 16 16 15 15 15 15
18 18 17 17 17 17 17 17 17 17 17 17 17 17 17 16 16 16 16 16 16 16 16 16 16 16 16 16 16 16 16 16 16 16 16 16 16 16 15 15 15 15 15
17 17 17 17 17 17 17 17 17 17 17 17 16 16 17 16 16 16 16 16 16 16 16 16 16 16 16 16 16 16 16 16 16 16 16 15 16 15 15 15 15 15 15
17 17 17 17 17 17 16 16 16 16 16 16 16 16 16 16 16 16 16 16 16 16 16 15 15 16 16 15 15 15 15 15 15 15 15 15 15 15 15 15 15 15 15
17 17 17 16 16 16 16 16 16 16 16 16 16 16 16 16 16 16 16 16 15 15 15 15 15 15 15 15 15 15 15 15 15 15 15 15 15 15 15 15 15 15 15
16 16 16 16 16 16 16 16 16 16 16 16 16 16 16 15 15 15 15 15 15 15 15 15 15 15 15 15 15 15 15 15 15 15 15 15 15 15 15 15 15 15 15
16 16 16 15 15 15 15 15 15 15 15 15 15 15 15 15 15 15 15 15 15 15 14 14 14 14 14 14 14 14 14 14 14 14 14 14 14 15 15 15 15 14 14
15 15 15 15 15 15 15 15 15 15 15 15 15 15 15 15 15 15 15 14 14 14 14 14 14 14 14 14 14 14 14 14 14 14 14 14 14 14 14 14 14 14 14
15 15 15 15 15 15 14 15 14 14 14 14 14 14 14 14 14 14 14 14 14 14 14 14 14 14 14 13 13 13 13 13 13 13 13 13 14 14 14 14 14 14 14
15 15 15 14 14 14 14 14 14 14 14 14 14 14 14 14 14 14 14 14 14 14 13 13 13 13 13 13 13 13 13 13 13 13 13 13 13 13 13 13 13 13 13
14 14 14 14 14 14 14 14 14 14 13 13 13 13 13 13 13 13 13 13 13 13 13 13 13 13 13 13 13 13 12 12 12 12 13 12 13 12 12 13 13 13 13
Wind_Speed
3 2 3 4 4 4 4 3 4 5 4 4 4 5 6 7 8 9 10 14 14 13 13 13 13 13 12 12 12 11 11 11 10 10 10 10 10 10 10 10 9 9 9
3 2 3 3 3 4 4 4 4 4 4 3 3 4 5 6 8 10 10 12 13 13 13 13 13 12 12 11 11 11 11 11 11 11 11 11 10 10 10 10 9 9 10
4 3 3 3 3 4 4 3 3 3 3 3 2 2 4 5 7 8 9 10 11 13 14 13 13 13 12 12 12 12 11 11 12 12 12 12 11 10 10 10 10 10 10
6 3 2 2 3 3 3 3 3 3 2 2 2 2 2 3 5 7 8 9 9 9 12 14 14 14 14 13 13 12 12 12 12 12 12 12 12 12 11 11 11 11 11
6 4 2 2 3 2 2 3 3 3 3 2 2 2 2 3 4 6 6 7 9 9 10 12 13 13 13 13 13 13 12 12 12 13 13 13 13 12 12 12 12 11 11
5 4 2 2 3 3 2 2 3 3 3 3 2 1 1 2 3 4 5 6 7 9 10 10 10 11 12 13 13 13 13 13 13 13 12 12 12 12 13 13 12 11 10
5 4 3 2 3 3 3 4 3 3 2 2 2 1 2 1 2 3 3 4 5 7 8 9 9 9 9 12 13 13 14 14 13 13 13 13 12 12 12 12 12 11 11
5 5 4 3 3 3 3 3 3 3 2 2 3 2 1 2 2 2 2 4 4 5 6 9 9 9 9 8 10 13 14 14 14 14 13 13 12 12 12 11 11 10 10
3 3 3 3 3 3 3 3 3 4 3 1 2 3 2 2 2 2 2 2 3 3 4 5 8 9 10 9 9 12 14 14 14 14 14 14 13 13 13 12 12 11 11
2 3 3 3 3 2 3 2 2 3 4 2 1 2 3 4 2 1 2 2 3 4 5 5 5 8 9 9 10 11 13 13 14 14 14 14 14 13 13 13 12 11 11
1 2 3 3 3 2 2 2 2 2 2 2 2 1 1 1 2 2 2 2 2 2 3 4 4 6 8 9 9 12 14 14 15 15 15 14 14 14 13 13 12 12 12
0 1 2 2 2 2 2 2 2 2 2 2 1 2 2 2 2 2 3 3 2 3 2 2 3 4 7 8 11 13 14 15 15 15 15 14 14 14 14 14 13 12 12
1 1 1 1 1 2 2 2 2 2 2 2 2 2 2 2 2 2 3 2 2 2 2 2 3 4 5 6 8 11 12 14 14 15 15 15 14 14 14 14 14 13 13
2 1 1 1 1 2 2 2 1 2 1 2 2 2 1 2 2 2 3 3 1 2 2 4 2 3 4 6 8 9 8 11 13 14 15 14 14 14 13 13 14 13 13
2 2 2 2 1 1 1 2 1 2 1 2 2 2 2 2 1 2 2 3 3 2 4 4 3 3 4 6 8 8 8 10 12 13 14 14 14 14 14 14 14 13 13
2 2 1 1 1 1 1 1 1 1 1 2 2 1 2 2 2 2 2 2 2 3 4 4 4 3 3 4 7 8 8 10 11 11 13 14 15 15 15 15 14 14 14
2 2 2 2 2 1 2 1 2 1 1 2 2 1 2 2 1 1 1 2 2 2 4 5 3 3 3 3 3 5 7 7 8 11 12 13 14 15 15 16 16 15 15
2 2 2 2 2 1 2 2 2 2 2 2 2 2 3 2 1 2 1 2 3 3 3 4 4 2 2 3 3 4 4 6 7 11 12 13 13 14 16 17 17 16 16
2 1 2 2 1 1 1 2 2 2 2 2 2 3 3 2 2 2 2 2 3 3 2 2 3 2 2 2 1 3 3 3 6 9 12 13 14 14 14 15 15 16 16
2 2 2 2 1 1 1 1 2 2 2 2 2 3 3 3 3 3 3 3 3 2 1 1 2 2 2 2 1 2 3 3 4 5 6 8 10 12 13 13 14 14 14
2 2 2 1 0 1 1 1 2 2 2 2 2 3 3 3 3 3 3 2 2 2 1 1 2 2 2 1 2 2 3 3 4 3 3 3 4 5 7 11 13 13 14
2 2 2 1 0 0 0 0 1 1 1 1 2 3 3 2 2 2 3 3 3 3 3 3 3 3 4 3 2 2 2 2 4 2 2 4 3 4 5 7 10 12 14
2 2 2 1 1 1 0 1 2 1 1 1 2 2 2 2 2 3 3 3 3 4 4 4 4 4 4 4 3 2 2 3 5 3 1 4 2 3 4 6 9 11 13
3 2 2 2 1 1 0 0 1 1 1 2 2 2 2 2 2 2 2 3 3 4 4 3 4 5 4 4 4 4 4 3 3 3 2 3 3 3 3 4 8 10 12
1 2 2 2 1 1 1 1 1 0 1 2 3 2 1 2 3 2 1 2 3 4 4 2 2 3 3 3 3 1 1 1 4 4 2 2 3 2 2 3 4 6 9
2 2 1 1 1 1 2 2 1 0 1 2 2 2 1 2 3 2 2 2 3 4 3 3 3 4 4 4 3 3 3 3 3 3 3 2 2 1 2 3 2 3 4
Wind_Direction
174 184 190 193 198 200 195 192 196 200 203 208 204 190 182 182 183 184 187 193 195 195 197 197 199 201 203 205 205 204 203 204 205 205 205 204 204 206 206 209 209 211 212
173 167 165 172 191 198 195 189 182 187 191 181 180 186 186 186 185 188 190 196 197 196 198 200 203 205 206 206 206 206 206 210 210 209 208 208 207 208 211 213 215 219 218
167 163 152 163 185 187 173 162 161 165 161 162 176 184 177 186 183 185 190 192 196 203 207 208 210 212 212 212 213 210 211 213 213 212 212 212 211 212 217 216 219 221 220
168 161 150 171 191 181 157 145 144 143 148 154 182 199 178 186 185 185 190 195 198 205 212 215 216 217 217 217 218 216 215 216 217 214 213 213 213 214 217 217 221 223 222
174 162 160 186 187 164 155 162 145 144 153 169 194 202 197 193 195 194 191 197 200 205 207 213 217 218 219 220 219 217 217 218 218 216 215 217 217 218 219 221 222 224 224
181 170 166 168 160 141 140 143 144 141 158 169 181 206 226 208 198 201 199 198 205 211 210 209 211 218 221 222 221 220 221 222 221 218 217 217 218 218 221 222 222 224 223
180 169 163 157 147 148 161 156 144 135 150 139 105 35 353 311 215 218 201 194 202 210 208 209 210 212 220 225 223 222 224 225 225 221 219 219 220 220 222 224 223 225 224
186 179 167 165 153 146 146 151 147 138 155 143 136 113 12 340 317 233 209 200 204 202 203 211 208 210 214 216 223 226 228 229 227 223 219 218 218 219 221 221 220 221 220
165 164 163 160 150 152 155 162 161 157 167 196 169 154 161 224 287 314 261 224 211 206 209 205 207 211 214 213 221 227 230 229 229 227 225 223 222 221 221 221 222 221 220
140 150 151 149 149 150 154 167 153 160 158 186 228 208 190 172 183 287 324 285 238 224 222 219 214 212 213 212 218 222 225 225 227 229 229 226 223 221 220 222 224 224 223
121 153 155 145 145 152 161 166 147 143 158 176 194 196 191 183 181 185 254 285 297 256 235 224 215 210 211 206 212 220 221 224 225 228 228 226 225 223 221 222 225 224 224
100 136 152 142 150 154 165 181 168 158 173 171 188 188 181 182 191 191 217 242 265 279 270 244 220 212 212 208 215 217 218 221 223 224 225 226 226 226 224 224 224 223 224
203 203 172 155 168 172 165 164 161 176 189 183 207 224 213 213 196 188 189 221 251 282 291 272 239 214 216 210 216 220 221 223 224 224 223 225 226 226 224 225 222 222 225
209 199 177 176 179 184 178 159 172 202 200 206 224 228 232 244 212 186 185 182 238 291 281 264 268 231 223 218 223 219 222 226 227 226 225 226 225 224 223 223 222 222 225
195 178 181 181 191 179 174 170 194 217 199 214 226 221 236 252 226 211 198 183 188 242 268 260 259 252 233 227 223 215 218 227 228 225 225 226 225 224 224 224 222 220 221
196 178 175 174 177 167 169 182 221 235 222 239 227 227 251 243 243 232 210 216 198 207 250 257 246 256 246 240 230 221 224 231 231 230 228 228 227 226 224 223 221 217 216
183 186 192 194 191 192 199 197 236 240 238 263 268 246 261 256 257 256 229 236 234 211 246 273 264 265 231 242 236 231 233 228 235 234 232 230 229 229 226 224 220 218 218
193 190 184 195 204 197 196 200 234 250 240 250 259 255 264 265 270 268 256 251 245 227 221 264 283 279 243 233 228 235 242 240 238 242 238 234 232 231 229 225 222 221 221
176 166 156 180 202 202 198 217 219 244 244 246 244 242 257 259 266 264 262 262 264 263 231 243 272 276 265 250 252 260 263 264 253 252 244 239 236 234 232 229 225 224 226
171 177 179 194 204 201 199 232 232 230 243 259 257 247 246 241 242 243 251 253 256 263 262 257 271 289 286 277 219 252 277 266 262 263 255 247 240 235 233 231 227 227 228
185 173 146 145 181 185 230 229 229 217 232 269 288 275 259 254 248 240 245 252 247 249 254 257 270 296 295 303 259 244 256 273 269 253 255 255 237 237 237 236 234 232 231
176 142 144 147 104 300 43 76 167 212 222 241 282 297 290 289 295 266 247 245 222 230 240 243 252 257 262 256 257 251 251 278 282 262 228 263 233 237 242 236 235 231 231
163 155 166 165 182 241 94 109 104 170 229 261 264 281 297 301 299 286 288 288 275 253 236 229 240 250 250 243 233 252 246 246 257 260 232 266 254 253 256 249 237 232 230
162 168 178 190 197 248 332 25 124 213 247 264 258 241 249 282 301 285 279 290 289 289 273 246 237 251 253 241 222 224 234 258 282 286 219 250 270 264 273 264 243 235 233
171 184 181 183 198 266 333 349 53 311 288 285 283 267 235 259 296 302 275 281 295 303 308 288 267 278 284 274 245 215 259 268 287 286 250 222 259 275 277 266 264 242 237
190 198 215 215 206 262 357 15 16 290 293 291 295 290 282 277 287 289 240 248 271 284 309 327 318 311 304 305 288 227 218 229 257 273 257 217 248 239 282 279 272 270 254
Height
1527 1528 1529 1530 1531 1533 1534 1536 1538 1540 1542 1544 1546 1547 1548 1550 1551 1552 1553 1553 1554 1555 1556 1556 1557 1558 1559 1559 1560 1560 1561 1562 1562 1563 1563 1564 1565 1566 1567 1567 1568 1569 1569
1528 1528 1529 1530 1531 1532 1533 1535 1536 1539 1541 1543 1545 1546 1547 1549 1550 1551 1552 1552 1553 1554 1555 1555 1556 1557 1557 1558 1558 1559 1559 1560 1560 1561 1561 1562 1563 1564 1565 1566 1566 1567 1568
1529 1529 1529 1530 1532 1533 1534 1535 1536 1539 1541 1542 1544 1545 1546 1547 1548 1549 1550 1551 1552 1552 1553 1554 1554 1555 1555 1556 1557 1557 1557 1558 1558 1559 1559 1560 1561 1562 1563 1564 1564 1565 1566
1530 1530 1530 1531 1532 1533 1534 1535 1537 1538 1540 1542 1543 1544 1545 1546 1548 1548 1549 1550 1550 1551 1552 1552 1553 1553 1554 1554 1555 1555 1555 1556 1556 1556 1557 1558 1558 1559 1560 1561 1562 1563 1563
1530 1530 1530 1531 1532 1533 1535 1536 1537 1538 1540 1541 1543 1544 1545 1545 1546 1547 1548 1548 1549 1550 1550 1550 1551 1551 1552 1552 1552 1553 1553 1553 1554 1554 1555 1555 1556 1557 1558 1559 1560 1560 1561
1531 1531 1531 1532 1533 1534 1535 1536 1537 1538 1540 1541 1542 1543 1544 1544 1545 1546 1546 1547 1548 1548 1548 1548 1549 1549 1550 1550 1550 1551 1551 1551 1552 1552 1552 1553 1554 1555 1556 1556 1557 1558 1558
1531 1532 1532 1532 1533 1534 1535 1536 1537 1538 1539 1540 1541 1542 1543 1543 1544 1544 1545 1545 1545 1546 1546 1546 1547 1547 1548 1548 1548 1549 1549 1549 1550 1550 1550 1551 1552 1552 1553 1554 1555 1555 1556
1532 1532 1532 1533 1533 1534 1535 1535 1536 1537 1539 1540 1540 1541 1541 1543 1542 1543 1543 1543 1544 1544 1544 1544 1545 1545 1546 1546 1546 1546 1547 1547 1547 1548 1548 1548 1549 1550 1551 1551 1552 1552 1553
1533 1533 1533 1533 1533 1534 1534 1535 1536 1537 1537 1539 1540 1541 1541 1540 1541 1542 1542 1542 1542 1542 1542 1542 1543 1543 1543 1543 1544 1544 1544 1545 1545 1545 1546 1546 1546 1547 1548 1548 1549 1549 1550
1533 1533 1533 1533 1533 1534 1534 1535 1536 1536 1537 1537 1538 1539 1540 1539 1540 1540 1540 1540 1540 1540 1540 1540 1540 1540 1541 1541 1541 1541 1542 1542 1542 1543 1543 1543 1544 1544 1545 1545 1546 1546 1547
1532 1532 1532 1532 1533 1533 1534 1534 1535 1535 1536 1536 1536 1537 1537 1538 1538 1538 1538 1538 1538 1538 1538 1538 1538 1538 1538 1538 1538 1539 1539 1540 1540 1540 1540 1540 1541 1541 1542 1542 1543 1543 1544
1532 1532 1532 1532 1532 1533 1533 1533 1534 1534 1534 1535 1535 1535 1535 1536 1536 1536 1536 1536 1536 1536 1536 1536 1536 1536 1536 1536 1536 1536 1536 1536 1537 1537 1537 1537 1537 1538 1538 1538 1539 1540 1540
1531 1531 1531 1531 1531 1532 1532 1532 1532 1532 1532 1533 1533 1533 1534 1534 1534 1534 1534 1533 1533 1533 1533 1533 1533 1533 1533 1533 1532 1533 1533 1533 1533 1534 1534 1534 1534 1534 1535 1535 1536 1536 1537
1530 1531 1530 1530 1530 1531 1531 1531 1531 1531 1531 1531 1531 1531 1531 1532 1532 1532 1532 1531 1531 1530 1530 1530 1530 1530 1530 1530 1529 1529 1529 1529 1529 1530 1530 1530 1531 1531 1531 1532 1532 1533 1533
1529 1529 1529 1529 1529 1529 1529 1530 1529 1529 1529 1529 1529 1529 1529 1529 1529 1529 1529 1529 1529 1527 1526 1526 1526 1526 1526 1526 1526 1526 1526 1526 1526 1526 1526 1527 1527 1527 1528 1528 1529 1529 1530
1528 1528 1527 1528 1528 1527 1528 1528 1528 1528 1528 1527 1528 1528 1527 1527 1527 1527 1527 1527 1527 1526 1524 1523 1523 1523 1523 1523 1523 1523 1523 1523 1523 1523 1523 1523 1523 1523 1524 1524 1525 1525 1526
1526 1526 1526 1526 1526 1526 1526 1526 1526 1526 1525 1525 1525 1525 1525 1525 1524 1524 1524 1524 1524 1524 1522 1520 1519 1519 1519 1519 1519 1520 1520 1519 1519 1519 1520 1520 1520 1520 1520 1521 1521 1522 1522
1523 1524 1524 1524 1524 1524 1524 1524 1523 1523 1523 1523 1522 1522 1522 1522 1522 1522 1521 1521 1520 1520 1519 1517 1516 1515 1515 1515 1516 1516 1516 1516 1516 1516 1515 1516 1516 1516 1516 1516 1517 1518 1518
1521 1521 1521 1521 1521 1521 1521 1521 1521 1520 1520 1520 1520 1519 1519 1519 1519 1519 1518 1518 1517 1517 1516 1514 1513 1512 1512 1512 1512 1512 1512 1512 1512 1512 1512 1512 1512 1512 1512 1512 1513 1513 1514
1518 1518 1518 1519 1519 1519 1519 1519 1518 1517 1517 1517 1517 1517 1516 1516 1516 1516 1515 1515 1514 1513 1512 1511 1510 1509 1508 1509 1509 1508 1508 1508 1508 1508 1508 1508 1508 1507 1508 1508 1508 1509 1510
1516 1516 1516 1516 1516 1516 1516 1515 1515 1515 1514 1514 1514 1514 1513 1513 1513 1513 1512 1511 1511 1510 1509 1508 1507 1506 1505 1505 1505 1504 1504 1504 1504 1504 1504 1503 1503 1503 1503 1503 1504 1504 1505
1514 1513 1513 1513 1513 1513 1513 1512 1512 1512 1511 1511 1510 1510 1510 1510 1510 1510 1509 1508 1508 1507 1505 1505 1504 1503 1502 1502 1502 1501 1501 1500 1499 1500 1500 1499 1499 1498 1498 1499 1499 1499 1500
1511 1511 1511 1511 1511 1510 1510 1510 1509 1509 1508 1507 1507 1507 1507 1506 1506 1506 1505 1505 1504 1504 1503 1502 1501 1500 1500 1499 1499 1498 1498 1497 1496 1496 1496 1494 1494 1494 1494 1494 1494 1494 1495
1507 1508 1508 1508 1508 1508 1508 1507 1507 1507 1506 1505 1504 1504 1503 1503 1503 1502 1502 1501 1500 1500 1499 1498 1498 1497 1497 1496 1496 1495 1495 1494 1493 1493 1492 1491 1490 1489 1490 1489 1489 1490 1490
1505 1505 1506 1506 1505 1505 1506 1506 1505 1504 1503 1502 1502 1501 1501 1500 1499 1499 1498 1497 1497 1496 1495 1495 1494 1493 1493 1492 1492 1492 1491 1490 1488 1488 1488 1487 1485 1485 1485 1485 1485 1485 1486
1503 1503 1503 1504 1504 1503 1503 1503 1503 1502 1501 1500 1499 1498 1498 1497 1496 1496 1495 1494 1493 1492 1492 1491 1490 1490 1489 1488 1488 1487 1487 1486 1485 1483 1483 1483 1482 1482 1481 1481 1481 1481 1481